Location: Oberstdorf
(47.4188°N, 10.2969°E)
Time: 05:28:44
(UTC+01:00)

ISS - Pass Details

Date: 12 November 2017
Orbit: 402 x 407 km, 51.6° (Epoch: 21 November)

Event Time Altitude Azimuth Distance (km) Brightness Sun altitude
Exits shadow 05:52:32 30° 306° (NW) 756 -3.0 -14.7°
Maximum altitude 05:53:57 66° 20° (NNE) 444 -3.7 -14.5°
Drops below altitude 10° 05:57:12 10° 104° (ESE) 1,453 0.4 -13.9°
Sets 05:59:17 0° 107° (ESE) 2,311 2.0 -13.6°
